Regional Weather Roundup
Issued by NWS Cleveland, OH

Home | Current Version | Previous Version | Graphics & Text | Print | Product List | Glossary On
Versions: 1 2 3 4 5 6 7 8 9 10 11 12 13 14 15 16 17 18 19 20 21 22 23 24 25 26 27 28 29 30 31 32 33 34 35 36 37 38 39 40 41 42 43 44 45 46 47 48 49 50
000
ASUS41 KCLE 280010
RWRCLE
OHIO REGIONAL WEATHER ROUNDUP
NATIONAL WEATHER SERVICE CLEVELAND, OH
700 PM EST SAT DEC 27 2014

NOTE: "FAIR" INDICATES FEW OR NO CLOUDS BELOW 12,000 FEET WITH NO
SIGNIFICANT WEATHER AND/OR OBSTRUCTIONS TO VISIBILITY.

OHZ001>008-015>018-024>027-034-035-043-044-280100-
   NORTHWEST OHIO

CITY           SKY/WX    TMP DP  RH WIND       PRES   REMARKS
DEFIANCE       CLOUDY    47  45  93 SW9       30.00F
FINDLAY        CLOUDY    48  45  89 SW12      30.02F
TOLEDO EXPRESS CLOUDY    47  45  93 SW10      29.99F
TOLEDO EXEC    CLOUDY    48  44  86 SW16      30.00F FOG
LIMA           CLOUDY    48  45  89 SW9       30.03F FOG
$$

OHZ009>014-019>023-028>033-038-089-280100-
   NORTHEAST OHIO

CITY           SKY/WX    TMP DP  RH WIND       PRES   REMARKS
CLE-HOPKINS    CLOUDY    51  41  68 SW13      30.04S
CLE-LAKEFRONT  CLOUDY    53  41  63 S17       30.01S
CUY CO. ARPT   CLOUDY    54  43  66 SW13G23   30.02F
LORAIN-ELYRIA  CLOUDY    49  43  80 SW12      30.04R
ASHTABULA      CLOUDY    52  34  50 SW10      30.01F
AKRON-CANTON   CLOUDY    51  35  54 SW10      30.04F
WOOSTER        LGT RAIN  49  41  74 SW16      30.04F
MANSFIELD      CLOUDY    47  44  90 SW13      30.04S
YOUNGSTOWN     LGT RAIN  52  33  48 SW14G20   30.03F
$$

OHZ042-051>053-060>062-070>072-077>081-280100-
  SOUTHWEST OHIO

CITY           SKY/WX    TMP DP  RH WIND       PRES   REMARKS
CINC-COVINGTON LGT RAIN  48  44  86 S8        30.09F FOG
CINC-LUNKEN    RAIN      48  48 100 S7        30.11F FOG
HAMILTON       LGT RAIN  48  47  96 SW3       30.10F
DAYTON         CLOUDY    47  46  97 S12       30.05F
WRIGHT-PAT AFB CLOUDY    47  47  99 S6        30.06F FOG
DAYTON GENERAL LGT RAIN  47  46  97 S8        30.06F FOG
WILMINGTON     LGT RAIN  47  45  93 SW9       30.08F FOG
$$

OHZ036-037-039>041-045>050-054>059-063>069-073>076-082>088-280100-
  CENTRAL AND SOUTHEAST OHIO

CITY           SKY/WX    TMP DP  RH WIND       PRES   REMARKS
COLUMBUS       LGT RAIN  49  43  80 SW9       30.08F
OSU AIRPORT    LGT RAIN  48  45  89 SW9       30.08S FOG
BOLTON FIELD   RAIN      47  46  97 SW9       30.09S
RICKENBACK AFB RAIN      48  44  85 SW8       30.08S
NEWARK         CLOUDY    50  42  74 SW7       30.08S
MARION         LGT RAIN  47  44  90 SW12      30.05F
LANCASTER      LGT RAIN  51  42  71 W5        30.08F
ZANESVILLE     CLOUDY    52  32  46 SW3       30.07F
NEW PHILLY     CLOUDY    54  33  45 S3        30.06F
$$



USA.gov is the U.S. government's official web portal to all federal, state and local government web resources and services.